Regional Weather Roundup
Issued by NWS Charleston, SC

Home | Current Version | Previous Version | Text Only | Print | Product List | Glossary On
Versions: 1 2 3 4 5 6 7 8 9 10 11 12 13 14 15 16 17 18 19 20 21 22 23 24 25 26 27 28 29 30 31 32 33 34 35 36 37 38 39 40 41 42 43 44 45 46 47 48 49 50
000
ASUS42 KCHS 281928
RWRCHS

REGIONAL WEATHER ROUNDUP
NATIONAL WEATHER SERVICE CHARLESTON SC
300 PM EDT WED SEP 28 2016

NOTE: "FAIR" INDICATES FEW OR NO CLOUDS BELOW 12,000 FEET WITH NO
SIGNIFICANT WEATHER AND/OR OBSTRUCTIONS TO VISIBILITY.

NOT ALL STATIONS ARE QUALITY CONTROLLED. USE DATA WITH CAUTION...
ESPECIALLY DEWPOINT OBSERVATIONS.

SCZ027-030-031-034>040-042>050-282000-
...SOUTHEAST SOUTH CAROLINA...

CITY           SKY/WX    TMP DP  RH WIND       PRES   REMARKS
N CHARLESTON   PTSUNNY   89  72  56 S10       29.94F HX  96
WATERFRONT PRK   N/A     83  75  76 S10       29.93F HX  90
MOUNT PLEASANT FAIR      84  75  74 S15       29.95S HX  92
JOHNS ISLAND   FAIR      86  77  74 S10       29.94F HX  97
PINOPOLIS        N/A     84  73  70 SW5       29.87F HX  91
MONCKS CORNER  FAIR      88  70  55 S8        29.93S HX  92
SUMMERVILLE    FAIR      88  72  58 S6        29.94F HX  94
BEAUFORT MCAS  MOSUNNY   90  73  57 S8        29.94F HX  98
BEAUFORT ARPT  FAIR      84  70  61 S10       29.93F
HILTON HEAD IS MOSUNNY   90  75  62 S7G14     29.95F HX 100
WALTERBORO     PTCLDY    91  66  43 S12       29.93F HX  94
ALLENDALE      FAIR      90  68  48 S8        29.90F HX  93

...SOUTHERN MIDLANDS AND PEE DEE...

CITY           SKY/WX    TMP DP  RH WIND       PRES   REMARKS
GEORGETOWN     MOCLDY    75  72  88 CALM      29.96F
KINGSTREE      FAIR      88  68  51 S7        29.92F HX  91
ORANGEBURG     MOSUNNY   87  68  52 S14       29.91F HX  90
BARNWELL       NOT AVBL
AIKEN          MOCLDY    82  72  69 CALM      29.93F
MANNING        FAIR      86  70  58 S6        29.92S HX  90
COLUMBIA       PTSUNNY   90  69  50 S10       29.88F HX  94
SUMTER         PTSUNNY   90  69  49 S15       29.88F HX  95
FLORENCE       CLOUDY    88  70  55 S13       29.91F HX  93
MYRTLE BEACH   PTSUNNY   82  66  57 S15       29.98R
N MYRTLE BEACH CLOUDY    81  73  76 S12       29.96S

$$

GAZ063-065-086>088-099>101-113>116-118-119-134>141-150-282000-
...SOUTHEAST GEORGIA...

CITY           SKY/WX    TMP DP  RH WIND       PRES   REMARKS
SAVANNAH ARPT  PTSUNNY   90  67  46 S12G18    29.93F HX  93
HUNTER AAF     PTSUNNY   87  79  77 SE12      29.91F HX 101
FORT STEWART   MOSUNNY   90  67  46 SW7       29.90F HX  93
STATESBORO     MOSUNNY   91  69  48 S8        29.91F HX  96
SYLVANIA       NOT AVBL
CLAXTON        FAIR      90  67  47 SW3       29.91F HX  93

...CSRA...CENTRAL AND FAR SOUTHEAST GEORGIA...

CITY           SKY/WX    TMP DP  RH WIND       PRES   REMARKS
THOMSON        SUNNY     92  68  44 SW8G16    29.93F HX  96
AUGUSTA-BUSH   MOSUNNY   91  69  48 S13       29.88F HX  96
AUGUSTA-DANIEL MOSUNNY   93  64  38 SW13      29.90F HX  94
SWAINSBORO     LGT RAIN  88  68  51 SW6       29.91F HX  91
VIDALIA        MOSUNNY   91  70  49 SW8G16    29.91F HX  97
EASTMAN        FAIR      91  53  26 W8G16     29.93F
HAZLEHURST     FAIR      89  72  56 N8        29.90F HX  95
ALMA           MOSUNNY   90  69  50 S12       29.92F HX  94
WAYCROSS       MOSUNNY   93  73  50 SW10      29.92F HX 102
JESUP          FAIR      91  73  55 S8        29.93S HX 100
BAXLEY         FAIR      90  73  58 S9        29.91F HX  98
BRUNSWICK      MOSUNNY   90  72  55 SW3       29.94F HX  96
SAINT SIMONS   MOSUNNY   86  73  65 SE10      29.94F HX  93

$$

SCZ027-028-034-036>038-045-046-048>050-GAZ119-141-282000-
...LAKE AND SUPPLEMENTAL COASTAL OBSERVATIONS...

STATION/POSITION TIME  TEMP    WIND        PRES    WAVE   SWELL
                       AIR SEA DIR/SP/G            HT/PER HT/PER/DIR
                 (UTC) (F)     (DEG/KT/KT) (MB)    (FT/S) (FT/S/D)
WINYAH BAY       1845   78     270/  5     1014.0S
LAKE MURRAY      1850   86     220/  4/  8 1011.5F
ACE BASIN NERRS  1845   86     170/  1     1014.0F
FORT PULASKI     1900   85 82  150/  6/ 11 1014.3
SAPELO ISLAND    1900   90     220/  9     1014.0

$$

ANZ835-935-AMZ111-154-330-350-352-354-370-450-454-472-282000-
...C-MAN AND BUOY OBSERVATIONS...

STATION/POSITION TIME  TEMP    WIND        PRES    WAVE   SWELL
                       AIR SEA DIR/SP/G            HT/PER HT/PER/DIR
                 (UTC) (F)     (DEG/KT/KT) (MB)    (FT/S) (FT/S/D)
BUOY 41004       1850   82 83  210/  6/  8 1014.2F   2/11   2/110/11
BUOY 41008       1850   82 83  180/  8/ 10 1014.2F   2/10   2/ 70/10
FOLLY BEACH CMAN 1900   82     190/ 13/ 14 1014.6F
CAPERS NEARSHORE 1908   81 82  210/ 12/ 16 1014.1F
FRIPP NEARSHORE  1908   82 82  190/ 10/ 14 1014.1F


STATION/POSITION TIME  TEMP    WIND        PRES    WAVE   SWELL
                       AIR SEA DIR/SP/G            HT/PER HT/PER/DIR
                 (UTC) (F)     (DEG/KT/KT) (MB)    (FT/S) (FT/S/D)
5E ST. MARYS GA  1901      83                N/A     2/13   2/100/13
FRYING PAN BUOY  1910   81 83  180/  4/  6 1014.6
BUOY 41025       1850   78 84   10/  6/  6 1015.4R   4/11   3/ 80/11
CAPE LOOKOUT NC  1900   79     120/  5/  6 1014.8S
BUOY 41002       1850   81 83  210/ 16/ 17 1014.9S   4/11   2/ 80/11
BUOY 41010       NOT AVBL
ST AUGUSTINE FL  1900   82 85  110/ 10/ 11 1015.1F


$$




USA.gov is the U.S. government's official web portal to all federal, state and local government web resources and services.